{"data":{"norad_id":64271,"epoch":"2026-05-25T05:30:09.950976Z","epoch_age_seconds":69314,"freshness":"FRESH","line1":"1 64271U 25120R   26145.22928184  .00019781  00000+0  67806-3 0  9999","line2":"2 64271  53.1575 121.2476 0001195  75.3724 284.7410 15.30207100 55583","mean_motion":15.302071,"eccentricity":0.0001195,"inclination_deg":53.1575,"raan_deg":121.2476,"arg_perigee_deg":75.3724,"mean_anomaly_deg":284.741,"bstar":0.00067806,"rev_number":5558,"period_min":94.104909067537,"perigee_km":474.37489714209,"apogee_km":476.01284322006,"semimajor_km":6853.3308701811,"source":"CELESTRAK","updated_at":"2026-05-25T13:38:20.360467Z"}}